Fergus Falls, MN

9:49 PM CST on December 10, 2019 (GMT -0600)
Fergus Falls Municipal-Mickelson

Weather History for KFFM - October, 2019

Change the Weather History Date:

Tuesday, October 8, 2019

  Actual Average Record
Temperature  
Mean Temperature 60 °F -  
Max Temperature 69 °F 57 °F 84 °F (2003)
Min Temperature 50 °F 38 °F 21 °F (2000)
Degree Days  
Heating Degree Days 6    
Growing Degree Days 10 (Base 50)    
Moisture  
Dew Point 44 °F    
Average Humidity 59    
Maximum Humidity 76    
Minimum Humidity 43    
Precipitation  
Precipitation 0.00 in - - ()
Sea Level Pressure  
Sea Level Pressure 29.76 in    
Wind  
Wind Speed 13 mph ()    
Max Wind Speed 23 mph    
Max Gust Speed 30 mph    
Visibility 10.0 miles    
Events      
Averages and records for this station are not official NWS values.
T = Trace of Precipitation, MM = Missing Value Source: Averaged Metar Reports

Daily Weather History Graph

Daily Weather History Graph

Search for Another Location

Airport or City:

Astronomy

Oct. 08, 2019 Rise Set
Actual Time 7:32 AM CDT 6:51 PM CDT
Civil Twilight 7:02 AM CDT 7:21 PM CDT
Nautical Twilight 6:27 AM CDT 7:56 PM CDT
Astronomical Twilight 5:52 AM CDT 8:31 PM CDT
Moon 5:11 PM CDT (10/8) 2:00 AM CDT (10/8)
Length of Visible Light 12h 19m
Length of Day
11h 19m
Waxing Gibbous, 78% of the Moon is Illuminated
Oct 8
Waxing Gibbous
Oct 13
Full
Oct 21
Last Quarter
Oct 27
New
Nov 4
First Quarter

Hourly Weather History & Observations

Time (CDT) Temp. Dew Point Humidity Pressure Visibility Wind Dir Wind Speed Gust Speed Precip Events Conditions
12:15 AM 53.6 °F 39.2 °F 58% 29.89 in 10.0 mi SSE 10.4 mph - N/A   Clear
12:16 AM 53.6 °F 39.2 °F 58% 29.89 in 10.0 mi SSE 10.4 mph - N/A   Clear
12:35 AM 53.6 °F 39.2 °F 58% 29.87 in 10.0 mi SSE 11.5 mph 17.3 mph N/A   Clear
12:36 AM 53.6 °F 39.2 °F 58% 29.87 in 10.0 mi SE 12.7 mph - N/A   Clear
12:58 AM 53.6 °F 39.2 °F 58% 29.86 in 10.0 mi SSE 15.0 mph - N/A   Clear
1:17 AM 51.8 °F 39.2 °F 62% 29.84 in 10.0 mi SSE 13.8 mph - N/A   Clear
1:36 AM 51.8 °F 39.2 °F 62% 29.84 in 10.0 mi SSE 11.5 mph - N/A   Clear
1:55 AM 51.8 °F 39.2 °F 62% 29.83 in 10.0 mi SSE 12.7 mph - N/A   Clear
1:56 AM 51.8 °F 39.2 °F 62% 29.83 in 10.0 mi SSE 12.7 mph - N/A   Clear
2:15 AM 50.0 °F 39.2 °F 66% 29.83 in 10.0 mi SSE 13.8 mph - N/A   Clear
2:19 AM 51.8 °F 39.2 °F 62% 29.83 in 10.0 mi South 12.7 mph - N/A   Clear
2:37 AM 50.0 °F 41.0 °F 71% 29.83 in 10.0 mi SSE 10.4 mph - N/A   Clear
2:56 AM 50.0 °F 41.0 °F 71% 29.83 in 10.0 mi South 12.7 mph 16.1 mph N/A   Clear
3:15 AM 51.8 °F 41.0 °F 67% 29.82 in 10.0 mi South 12.7 mph - N/A   Clear
3:16 AM 51.8 °F 41.0 °F 67% 29.82 in 10.0 mi South 12.7 mph - N/A   Clear
3:35 AM 51.8 °F 41.0 °F 67% 29.81 in 10.0 mi South 12.7 mph - N/A   Clear
3:40 AM 51.8 °F 42.8 °F 71% 29.81 in 10.0 mi South 12.7 mph - N/A   Clear
3:57 AM 51.8 °F 41.0 °F 67% 29.80 in 10.0 mi SSE 13.8 mph - N/A   Clear
4:15 AM 50.0 °F 42.8 °F 76% 29.80 in 10.0 mi SSE 11.5 mph - N/A   Clear
4:35 AM 50.0 °F 42.8 °F 76% 29.80 in 10.0 mi SSE 11.5 mph - N/A   Clear
4:36 AM 50.0 °F 42.8 °F 76% 29.80 in 10.0 mi SSE 11.5 mph - N/A   Clear
4:55 AM 51.8 °F 42.8 °F 71% 29.80 in 10.0 mi SSE 11.5 mph - N/A   Clear
4:56 AM 51.8 °F 42.8 °F 71% 29.80 in 10.0 mi SSE 10.4 mph - N/A   Clear
5:37 AM 51.8 °F 42.8 °F 71% 29.79 in 10.0 mi South 13.8 mph - N/A   Clear
5:56 AM 53.6 °F 42.8 °F 67% 29.78 in 10.0 mi South 11.5 mph - N/A   Clear
6:15 AM 53.6 °F 42.8 °F 67% 29.78 in 10.0 mi South 15.0 mph - N/A   Clear
6:16 AM 53.6 °F 42.8 °F 67% 29.78 in 10.0 mi South 13.8 mph - N/A   Clear
6:35 AM 51.8 °F 42.8 °F 71% 29.77 in 10.0 mi South 12.7 mph - N/A   Clear
6:39 AM 51.8 °F 42.8 °F 71% 29.78 in 10.0 mi South 12.7 mph - N/A   Clear
6:56 AM 51.8 °F 42.8 °F 71% 29.77 in 10.0 mi South 12.7 mph - N/A   Clear
7:16 AM 51.8 °F 41.0 °F 67% 29.77 in 10.0 mi SSE 12.7 mph - N/A   Clear
7:35 AM 51.8 °F 41.0 °F 67% 29.78 in 10.0 mi South 11.5 mph - N/A   Clear
7:36 AM 51.8 °F 41.0 °F 67% 29.78 in 10.0 mi South 11.5 mph - N/A   Clear
7:55 AM 51.8 °F 41.0 °F 67% 29.78 in 10.0 mi South 11.5 mph - N/A   Clear
7:59 AM 51.8 °F 41.0 °F 67% 29.78 in 10.0 mi South 12.7 mph - N/A   Clear
8:16 AM 51.8 °F 41.0 °F 67% 29.78 in 10.0 mi South 11.5 mph - N/A   Clear
8:35 AM 51.8 °F 41.0 °F 67% 29.77 in 10.0 mi SSE 15.0 mph - N/A   Clear
8:36 AM 51.8 °F 41.0 °F 67% 29.77 in 10.0 mi South 15.0 mph - N/A   Clear
8:55 AM 53.6 °F 42.8 °F 67% 29.77 in 10.0 mi South 15.0 mph - N/A   Clear
8:56 AM 53.6 °F 42.8 °F 67% 29.77 in 10.0 mi South 15.0 mph - N/A   Clear
9:15 AM 55.4 °F 42.8 °F 63% 29.76 in 10.0 mi South 16.1 mph - N/A   Clear
9:19 AM 55.4 °F 42.8 °F 63% 29.76 in 10.0 mi South 16.1 mph - N/A   Clear
9:37 AM 57.2 °F 42.8 °F 59% 29.77 in 10.0 mi South 15.0 mph 24.2 mph N/A   Clear
9:55 AM 57.2 °F 42.8 °F 59% 29.76 in 10.0 mi South 16.1 mph - N/A   Clear
10:15 AM 59.0 °F 42.8 °F 55% 29.76 in 10.0 mi South 21.9 mph 26.5 mph N/A   Clear
10:35 AM 59.0 °F 42.8 °F 55% 29.76 in 10.0 mi South 17.3 mph 26.5 mph N/A   Clear
10:36 AM 60.8 °F 42.8 °F 52% 29.76 in 10.0 mi South 17.3 mph 26.5 mph N/A   Clear
10:58 AM 60.8 °F 42.8 °F 52% 29.76 in 10.0 mi South 18.4 mph 28.8 mph N/A   Clear
11:17 AM 62.6 °F 42.8 °F 48% 29.75 in 10.0 mi South 23.0 mph 28.8 mph N/A   Clear
11:36 AM 62.6 °F 44.6 °F 52% 29.75 in 10.0 mi South 20.7 mph 26.5 mph N/A   Clear
11:55 AM 64.4 °F 44.6 °F 49% 29.74 in 10.0 mi SSW 20.7 mph 26.5 mph N/A   Clear
11:56 AM 64.4 °F 44.6 °F 49% 29.74 in 10.0 mi South 19.6 mph 26.5 mph N/A   Clear
12:15 PM 64.4 °F 44.6 °F 49% 29.73 in 10.0 mi SSW 20.7 mph 26.5 mph N/A   Clear
12:19 PM 64.4 °F 44.6 °F 49% 29.73 in 10.0 mi SSW 20.7 mph 26.5 mph N/A   Clear
12:37 PM 64.4 °F 44.6 °F 49% 29.74 in 10.0 mi SSW 17.3 mph 26.5 mph N/A   Clear
12:56 PM 66.2 °F 44.6 °F 46% 29.74 in 10.0 mi SSW 18.4 mph 21.9 mph N/A   Clear
1:15 PM 66.2 °F 44.6 °F 46% 29.73 in 10.0 mi SSW 18.4 mph 21.9 mph N/A   Clear
1:16 PM 66.2 °F 44.6 °F 46% 29.73 in 10.0 mi SSW 18.4 mph 21.9 mph N/A   Clear
1:35 PM 66.2 °F 44.6 °F 46% 29.73 in 10.0 mi South 21.9 mph - N/A   Clear
1:39 PM 66.2 °F 44.6 °F 46% 29.72 in 10.0 mi South 18.4 mph 24.2 mph N/A   Clear
1:57 PM 68.0 °F 44.6 °F 43% 29.72 in 10.0 mi South 23.0 mph 29.9 mph N/A   Clear
2:15 PM 69.8 °F 46.4 °F 43% 29.71 in 10.0 mi South 21.9 mph 27.6 mph N/A   Clear
2:35 PM 69.8 °F 46.4 °F 43% 29.71 in 10.0 mi South 19.6 mph 26.5 mph N/A   Clear
2:36 PM 69.8 °F 46.4 °F 43% 29.71 in 10.0 mi South 18.4 mph 26.5 mph N/A   Clear
2:55 PM 69.8 °F 46.4 °F 43% 29.70 in 10.0 mi South 23.0 mph 28.8 mph N/A   Clear
3:18 PM 69.8 °F 46.4 °F 43% 29.70 in 10.0 mi South 20.7 mph 25.3 mph N/A   Clear
3:36 PM 69.8 °F 46.4 °F 43% 29.70 in 10.0 mi South 21.9 mph 28.8 mph N/A   Clear
3:55 PM 69.8 °F 46.4 °F 43% 29.69 in 10.0 mi South 23.0 mph 26.5 mph N/A   Clear
3:56 PM 69.8 °F 46.4 °F 43% 29.69 in 10.0 mi South 23.0 mph 26.5 mph N/A   Clear
4:15 PM 69.8 °F 46.4 °F 43% 29.69 in 10.0 mi South 17.3 mph 26.5 mph N/A   Clear
4:16 PM 69.8 °F 46.4 °F 43% 29.69 in 10.0 mi South 18.4 mph 26.5 mph N/A   Clear
4:35 PM 69.8 °F 46.4 °F 43% 29.69 in 10.0 mi South 18.4 mph 25.3 mph N/A   Clear
4:57 PM 69.8 °F 46.4 °F 43% 29.69 in 10.0 mi SSW 19.6 mph 25.3 mph N/A   Clear
5:15 PM 69.8 °F 46.4 °F 43% 29.69 in 10.0 mi South 16.1 mph - N/A   Clear
5:35 PM 69.8 °F 46.4 °F 43% 29.69 in 10.0 mi SSW 15.0 mph 20.7 mph N/A   Clear
5:36 PM 69.8 °F 46.4 °F 43% 29.69 in 10.0 mi South 15.0 mph 20.7 mph N/A   Clear
5:55 PM 68.0 °F 46.4 °F 46% 29.69 in 10.0 mi South 11.5 mph - N/A   Clear
5:56 PM 68.0 °F 46.4 °F 46% 29.69 in 10.0 mi South 12.7 mph - N/A   Clear
6:19 PM 64.4 °F 48.2 °F 56% 29.70 in 10.0 mi South 8.1 mph - N/A   Clear
6:36 PM 62.6 °F 48.2 °F 59% 29.69 in 10.0 mi South 10.4 mph - N/A   Clear
6:56 PM 62.6 °F 46.4 °F 55% 29.70 in 10.0 mi SSE 8.1 mph - N/A   Clear
7:15 PM 60.8 °F 46.4 °F 59% 29.71 in 10.0 mi SSE 8.1 mph - N/A   Clear
7:16 PM 60.8 °F 46.4 °F 59% 29.71 in 10.0 mi SSE 8.1 mph - N/A   Clear
7:35 PM 59.0 °F 46.4 °F 63% 29.71 in 10.0 mi SSE 9.2 mph - N/A   Clear
7:39 PM 59.0 °F 46.4 °F 63% 29.71 in 10.0 mi SSE 9.2 mph - N/A   Clear
7:58 PM 59.0 °F 46.4 °F 63% 29.72 in 10.0 mi SSE 9.2 mph - N/A   Clear
8:15 PM 59.0 °F 46.4 °F 63% 29.72 in 10.0 mi SSE 9.2 mph - N/A   Clear
8:35 PM 57.2 °F 46.4 °F 67% 29.73 in 10.0 mi SSE 9.2 mph - N/A   Clear
8:36 PM 57.2 °F 46.4 °F 67% 29.73 in 10.0 mi SSE 9.2 mph - N/A   Clear
8:55 PM 59.0 °F 46.4 °F 63% 29.72 in 10.0 mi SSE 12.7 mph - N/A   Clear
8:56 PM 59.0 °F 46.4 °F 63% 29.72 in 10.0 mi SSE 12.7 mph - N/A   Clear
9:18 PM 59.0 °F 46.4 °F 63% 29.73 in 10.0 mi SSE 13.8 mph - N/A   Clear
9:37 PM 60.8 °F 46.4 °F 59% 29.73 in 10.0 mi SSE 12.7 mph - N/A   Clear
9:55 PM 59.0 °F 46.4 °F 63% 29.73 in 10.0 mi SSE 13.8 mph 18.4 mph N/A   Clear
10:15 PM 59.0 °F 46.4 °F 63% 29.73 in 10.0 mi SSE 13.8 mph 18.4 mph N/A   Clear
10:16 PM 59.0 °F 46.4 °F 63% 29.73 in 10.0 mi SSE 13.8 mph 18.4 mph N/A   Clear
10:35 PM 59.0 °F 46.4 °F 63% 29.73 in 10.0 mi SSE 15.0 mph - N/A   Clear
10:57 PM 57.2 °F 46.4 °F 67% 29.73 in 10.0 mi SSE 13.8 mph 17.3 mph N/A   Clear
11:15 PM 57.2 °F 46.4 °F 67% 29.73 in 10.0 mi SSE 15.0 mph - N/A   Clear
11:35 PM 57.2 °F 46.4 °F 67% 29.73 in 10.0 mi SSE 13.8 mph - N/A   Clear
11:55 PM 57.2 °F 46.4 °F 67% 29.73 in 10.0 mi SSE 13.8 mph 19.6 mph N/A   Clear
11:59 PM 57.2 °F 46.4 °F 67% 29.73 in 10.0 mi SSE 15.0 mph - N/A   Clear